Location: Battersea Observatory
(44.4318°N, 76.3841°W)
Time: 22:06:22
(UTC-05:00)

A-11 Canister half - All Passes

Search period start: 27 January 2022 00:00
Search period end: 06 February 2022 00:00
Orbit: 1524 x 1684 km, 47.3° (Epoch: 27 January)

Date Brightness Start Highest point End Pass type
(mag) Time Alt. Az. Time Alt. Az. Time Alt. Az.
27 Jan - 08:21:23 10° SSE 08:26:43 17° SE 08:32:05 10° E daylight
27 Jan - 10:21:06 10° SW 10:30:02 55° SE 10:39:11 10° ENE daylight
27 Jan - 12:25:26 10° WSW 12:34:50 82° NNW 12:44:31 10° ENE daylight
27 Jan - 14:30:53 10° WNW 14:40:25 80° NNE 14:50:16 10° E daylight
27 Jan - 16:36:02 10° WNW 16:45:25 61° SW 16:55:08 10° SE daylight
27 Jan - 18:42:25 10° W 18:49:06 21° SW 18:55:55 10° S visible
28 Jan - 08:00:14 10° SSE 08:05:09 16° SE 08:10:07 10° E daylight
28 Jan - 09:59:31 10° SW 10:08:25 53° SE 10:17:28 10° ENE daylight
28 Jan - 12:03:45 10° WSW 12:13:08 83° NNW 12:22:48 10° ENE daylight
28 Jan - 14:09:12 10° WNW 14:18:42 79° N 14:28:32 10° E daylight
28 Jan - 16:14:21 10° WNW 16:23:45 63° SSW 16:33:28 10° SE daylight
28 Jan - 18:20:34 10° W 18:27:30 22° SW 18:34:33 10° S visible
29 Jan - 07:39:08 10° SSE 07:43:36 14° ESE 07:48:04 10° E daylight
29 Jan - 09:37:57 10° SW 09:46:47 51° SE 09:55:46 10° ENE daylight
29 Jan - 11:42:04 10° WSW 11:51:26 84° NNW 12:01:05 10° ENE daylight
29 Jan - 13:47:31 10° WNW 13:57:00 78° N 14:06:47 10° E daylight
29 Jan - 15:52:40 10° WNW 16:02:05 65° SSW 16:11:49 10° SE daylight
29 Jan - 17:58:45 10° W 18:05:53 24° SW 18:13:11 10° S visible
30 Jan - 07:18:08 10° SSE 07:22:02 13° ESE 07:25:56 10° E daylight
30 Jan - 09:16:24 10° SSW 09:25:10 49° SE 09:34:03 10° ENE daylight
30 Jan - 11:20:24 10° WSW 11:29:45 86° NNW 11:39:22 10° ENE daylight
30 Jan - 13:25:50 10° W 13:35:17 77° N 13:45:03 10° E daylight
30 Jan - 15:31:00 10° WNW 15:40:25 68° SSW 15:50:10 10° SE daylight
30 Jan - 17:36:56 10° W 17:44:16 25° SW 17:51:47 10° S visible
31 Jan - 06:57:15 10° SE 07:00:28 12° ESE 07:03:41 10° ESE visible
31 Jan - 08:54:51 10° SSW 09:03:32 47° SE 09:12:20 10° ENE daylight
31 Jan - 10:58:44 10° WSW 11:08:04 87° NNW 11:17:39 10° ENE daylight
31 Jan - 13:04:09 10° W 13:13:35 77° N 13:23:19 10° E daylight
31 Jan - 15:09:19 10° WNW 15:18:45 70° SSW 15:28:30 10° SE daylight
31 Jan - 17:15:09 10° W 17:22:40 27° SW 17:30:21 10° S daylight
01 Feb - 06:36:36 10° SE 06:38:55 11° ESE 06:41:12 10° ESE visible
01 Feb - 08:33:19 10° SSW 08:41:55 45° SE 08:50:36 10° ENE daylight
01 Feb - 10:37:03 10° WSW 10:46:24 89° NNW 10:55:57 10° ENE daylight
01 Feb - 12:42:28 10° W 12:51:52 76° N 13:01:34 10° E daylight
01 Feb - 14:47:39 10° WNW 14:57:05 72° SSW 15:06:49 10° SE daylight
01 Feb - 16:53:23 10° WNW 17:01:02 28° SW 17:08:55 10° S daylight
02 Feb - 08:11:48 10° SSW 08:20:18 43° SE 08:28:53 10° ENE daylight
02 Feb - 10:15:23 10° WSW 10:24:42 90° S 10:34:14 10° ENE daylight
02 Feb - 12:20:47 10° W 12:30:10 76° N 12:39:50 10° E daylight
02 Feb - 14:25:59 10° WNW 14:35:25 74° SSW 14:45:08 10° SE daylight
02 Feb - 16:31:37 10° WNW 16:39:26 29° SW 16:47:28 10° S daylight
03 Feb - 07:50:16 10° SSW 07:58:42 41° SE 08:07:10 10° ENE daylight
03 Feb - 09:53:43 10° WSW 10:03:02 88° SSE 10:12:32 10° ENE daylight
03 Feb - 11:59:05 10° W 12:08:28 76° N 12:18:06 10° E daylight
03 Feb - 14:04:19 10° WNW 14:13:44 76° SSW 14:23:28 10° SE daylight
03 Feb - 16:09:52 10° WNW 16:17:49 31° SW 16:25:59 10° S daylight
04 Feb - 07:28:45 10° SSW 07:37:05 39° SE 07:45:26 10° ENE daylight
04 Feb - 09:32:03 10° WSW 09:41:21 86° SSE 09:50:50 10° ENE daylight
04 Feb - 11:37:24 10° W 11:46:46 75° N 11:56:21 10° E daylight
04 Feb - 13:42:39 10° WNW 13:52:04 78° SSW 14:01:46 10° ESE daylight
04 Feb - 15:48:07 10° WNW 15:56:12 32° SW 16:04:30 10° SSE daylight
05 Feb - 07:07:15 10° SSW 07:15:28 37° SE 07:23:43 10° ENE daylight
05 Feb - 09:10:23 10° WSW 09:19:41 84° SSE 09:29:08 10° ENE daylight
05 Feb - 11:15:43 10° W 11:25:03 75° N 11:34:38 10° E daylight
05 Feb - 13:20:59 10° WNW 13:30:24 80° SSW 13:40:05 10° ESE daylight
05 Feb - 15:26:23 10° WNW 15:34:35 34° SW 15:43:00 10° SSE daylight
